Location: The C. Gantt Observatory
(33.6981°N, 81.6836°W)
Time: 14:49:40
(UTC-05:00)

Daily predictions for brighter satellites

Satellite Brightness Start Highest point End
(mag) Time Altitude Azimuth Time Altitude Azimuth Time Altitude Azimuth
Cosmos 1844 Rocket 3.1 18:04:36 10° NNW 18:10:14 73° WSW 18:15:49 10° SSE
OTV 4 0.3 18:12:44 10° WNW 18:15:43 84° NNE 18:18:40 10° ESE
CENTAUR R/B 4.4 18:10:55 10° W 18:15:47 24° NW 18:21:07 10° N
CZ-2C R/B 3.1 18:10:50 10° S 18:15:48 62° W 18:20:37 10° NNW
Meteor 1-28 Rocket 3.9 18:13:48 10° NNE 18:17:12 33° E 18:20:35 10° SSE
YAOGAN 1 2.8 18:13:01 10° S 18:17:19 78° WSW 18:21:40 10° NNW
Cosmos 1125 Rocket 3.5 18:12:49 10° N 18:17:59 64° ENE 18:23:07 10° SSE
Meteor 2-10 4.4 18:14:27 10° N 18:19:18 41° ENE 18:24:15 10° SSE
COSMO-SKYMED 1 2.6 18:17:29 10° NNE 18:21:48 65° ESE 18:26:05 10° S
SPOT 3 Rocket 4.0 18:19:27 10° S 18:24:34 69° WSW 18:29:43 10° NNW
MSX 4.0 18:19:17 10° S 18:25:00 82° WSW 18:30:45 10° NNW
Resurs 01 Rocket 3.5 18:26:17 10° ENE 18:26:17 10° ENE 18:26:34 10° ENE
Thor Agena Rocket 4.4 18:21:22 10° N 18:26:27 54° WNW 18:31:26 10° SSW
Meteor 1-11 4.2 18:22:05 10° S 18:27:43 75° E 18:33:28 10° NNE
Cosmos 1666 Rocket 4.5 18:24:27 10° SSE 18:28:05 26° E 18:31:43 10° NNE
COSMOS 2441 4.5 18:24:09 10° S 18:29:01 84° WSW 18:33:53 10° NNW
Cosmos 1980 4.5 18:23:32 10° SW 18:29:04 54° WNW 18:34:39 10° N
Lacrosse 5 rocket 2.0 18:27:14 10° NNW 18:30:41 31° NE 18:34:17 10° ESE
Cosmos 1184 Rocket 4.3 18:29:07 10° SE 18:31:30 18° E 18:33:16 13° NE
Cosmos 1538 Rocket 4.4 18:29:01 10° S 18:33:59 44° ESE 18:39:02 10° NNE
Cosmos 2151 3.4 18:30:16 10° SSW 18:34:26 64° W 18:38:36 10° N
Tiangong 1 3.4 18:35:01 10° SSE 18:35:57 11° SE 18:36:52 10° ESE
Cosmos 2279 Rocket 3.9 18:36:17 10° N 18:42:30 72° E 18:48:42 10° SSE
CZ-4 R/B 4.2 18:40:51 10° SSW 18:43:49 21° W 18:46:49 10° NW
ALOS 3.5 18:41:42 10° ESE 18:44:58 19° ENE 18:48:16 10° NNE
NOAA 12 4.3 18:42:41 10° SE 18:47:41 48° ENE 18:52:44 10° N
Cosmos 2333 Rocket 3.9 18:43:32 10° WSW 18:48:28 30° WNW 18:53:25 10° N
Cosmos 2219 Rocket 4.4 18:45:25 10° WSW 18:49:50 23° WNW 18:54:15 10° N
Centaur AC-119 3.7 18:48:30 10° SSW 18:50:14 18° SSE 18:52:10 13° ESE
Cosmos 1626 2.1 18:48:29 10° S 18:52:09 59° E 18:55:51 10° NNE
SJ-6B 3.2 18:52:54 10° SE 18:56:44 43° ENE 19:00:39 10° N
Milstar 3 3.8 18:50:27 10° W 18:56:46 41° SSW 19:03:31 10° SE
Nadezhda 4 Rocket 4.0 18:51:47 10° S 18:57:53 60° E 19:04:05 10° NNE
Aureole 2 Rocket 4.5 18:55:01 10° SW 18:58:16 31° WNW 19:01:49 10° N
Cosmos 1703 3.4 18:56:37 10° S 19:00:30 75° W 19:04:23 10° N
Cosmos 2242 Rocket 4.4 18:58:45 10° NNE 19:02:34 28° ENE 19:06:25 10° SE
Cosmos 2278 Rocket 2.9 18:59:04 10° NNW 19:04:38 58° WSW 19:10:10 10° S
FAST Rocket 3.9 19:02:12 10° S 19:04:58 80° W 19:06:50 17° N
Cosmos 1805 Rocket 4.0 19:02:03 10° SSW 19:06:28 66° W 19:10:55 10° N
Cosmos 2180 Rocket 4.5 19:00:57 10° N 19:07:10 87° W 19:13:24 10° S
Cosmos 1455 2.3 19:04:32 10° N 19:08:12 47° E 19:11:54 10° SSE
EPKM 4.5 19:04:48 10° WSW 19:09:39 21° SSW 19:11:23 13° SSE
Cosmos 773 Rocket 3.8 19:10:08 10° S 19:15:15 74° ESE 19:19:20 17° NNE
FREGAT/IRIS 2.4 19:13:54 10° SSE 19:16:56 82° E 19:20:00 10° N
Helios 1B rocket 4.3 19:20:03 16° SE 19:20:03 16° SE 19:21:10 10° SSE
Cosmos 1092 Rocket 4.0 19:12:00 10° S 19:18:13 63° E 19:24:29 10° NNE
Sich 1 3.4 19:19:27 10° SSW 19:23:51 66° W 19:28:16 10° N
USA 215 3.4 19:21:36 28° ESE 19:25:00 53° NE 19:31:19 10° NNW
OAO 1 Rocket 4.4 19:20:06 10° W 19:25:24 79° SSW 19:27:27 38° ESE
Cosmos 1633 Rocket 3.5 19:26:58 10° SSW 19:31:20 62° W 19:35:41 10° N
SL-16 R/B 3.4 19:26:26 10° SW 19:31:44 41° WNW 19:37:04 10° N
Cosmos 2195 Rocket 4.3 19:37:27 10° S 19:43:28 64° E 19:46:13 33° NNE
Cosmos 2297 4.4 19:41:45 10° NNW 19:47:19 55° WSW 19:52:52 10° S
OTV 4 3.3 19:49:33 10° WSW 19:50:55 15° SW 19:50:55 15° SW
CZ-3A R/B 2.9 19:56:08 10° NW 20:00:41 75° NE 20:01:31 64° ESE
Spot 2 Rocket 3.6 19:55:57 10° S 20:00:59 73° WSW 20:06:02 10° NNW
Resurs 01 Rocket 2.9 19:57:34 10° S 20:03:50 33° NNW 20:06:23 10° NNW
FENGYUN 3A 4.0 20:01:04 10° S 20:06:20 62° WSW 20:11:40 10° NNW
Cosmos 1655 Rocket 4.0 20:00:49 10° S 20:06:22 66° SSE 20:06:22 66° SSE
USA 229 DEB 4.4 20:02:19 10° SW 20:08:55 50° NW 20:12:13 29° N
USA 229 4.4 20:02:24 10° SW 20:09:01 51° NW 20:12:17 29° N
Lacrosse 5 rocket 3.6 20:06:41 10° WNW 20:09:45 22° WSW 20:10:49 19° SW
Cosmos 1943 4.4 20:05:45 10° S 20:08:34 30° S 20:08:34 30° S
ALOS 3.8 20:17:54 10° SSW 20:22:08 34° W 20:26:22 10° NNW
